Theta_e
342 342 343 344 345 347 350 352 351 351 351 351 351 351 350 350 350 350 349 349 346 344 344 345 345 344 348 345 345 347 348 347 347 346 345 345 344 344 344 343 342 342 342 342 342 343 343 343 343 343 343 342 341 332 331 333 333 334 333 335 336 333
341 341 342 343 345 347 349 350 348 349 349 349 350 350 347 345 349 343 347 343 341 345 341 341 341 349 343 344 345 347 348 347 347 346 346 345 344 344 344 344 343 342 342 342 342 334 335 342 342 343 342 343 332 330 332 333 333 332 334 333 335 337
341 341 341 342 344 346 346 346 347 347 348 350 350 348 344 345 338 339 340 340 341 340 340 340 340 344 344 345 343 347 347 348 347 347 346 345 345 344 344 344 344 343 342 342 335 328 327 327 326 341 342 332 330 330 332 331 332 333 332 333 332 340
341 340 340 340 341 342 343 345 345 345 346 345 344 343 341 338 337 337 338 338 337 341 338 339 347 347 348 336 334 341 347 347 347 347 346 345 345 344 344 344 343 343 342 339 328 327 328 327 326 324 327 329 329 331 332 331 332 332 333 337 334 341
341 339 339 339 340 340 342 343 343 342 342 341 339 337 337 337 336 335 336 338 338 338 336 336 334 334 331 330 331 332 337 339 339 339 345 339 339 341 340 335 337 339 331 331 330 329 327 328 329 327 326 327 330 330 332 332 332 332 333 335 336 342
341 340 339 338 338 342 343 342 340 340 339 339 337 335 334 334 335 335 335 337 338 335 335 334 332 331 332 330 331 331 333 332 336 340 340 339 337 337 336 337 335 334 333 330 330 329 325 328 329 327 326 326 328 329 331 330 331 332 333 333 337 342
340 340 339 341 341 343 341 340 339 338 336 333 335 334 331 331 332 334 337 338 335 334 334 332 331 330 330 330 331 331 332 331 334 338 339 338 338 337 337 335 333 334 332 330 331 329 327 326 327 328 328 327 328 330 331 331 331 332 333 333 338 342
339 339 338 343 341 342 341 340 340 343 336 338 334 332 330 330 332 333 337 338 339 334 334 331 330 330 331 330 331 332 333 331 332 336 337 337 336 336 336 334 334 334 333 331 330 329 327 327 327 328 328 327 329 330 331 331 332 333 333 333 335 340
340 337 337 341 341 340 340 340 339 335 333 341 331 331 330 331 332 332 334 337 338 334 335 332 331 331 331 331 332 333 333 332 333 334 334 335 336 335 336 333 334 334 332 329 327 328 327 327 327 328 326 328 330 330 331 331 331 332 333 333 334 337
339 337 338 341 340 339 338 337 336 335 333 339 330 331 330 330 331 332 331 333 335 334 335 333 332 332 330 331 332 333 332 331 332 333 333 333 334 334 334 333 332 333 333 329 328 329 328 326 326 325 324 325 325 327 329 331 331 332 333 334 333 335
338 341 339 341 339 338 337 335 336 335 334 332 330 331 330 331 331 332 331 331 333 334 334 334 333 332 330 331 331 332 331 331 331 332 333 332 331 331 330 332 332 331 331 329 329 329 328 327 327 328 328 328 327 327 327 329 332 332 333 333 333 333
336 339 337 337 341 337 337 338 337 335 334 333 334 331 330 330 334 331 332 331 332 333 336 333 332 331 330 330 330 331 331 332 331 332 332 331 331 332 331 334 334 332 329 329 328 328 328 328 328 329 330 329 329 328 327 327 331 332 332 333 333 334
336 336 333 334 335 335 337 336 333 332 333 335 333 333 331 330 329 330 331 331 331 333 333 332 331 331 332 329 330 329 330 333 333 333 333 332 331 330 331 330 330 330 328 328 328 328 329 329 328 329 330 331 329 329 328 328 327 329 332 332 332 334
327 328 327 326 325 327 333 332 331 331 336 332 330 329 332 330 332 330 331 331 332 332 331 330 329 329 329 329 329 329 329 330 331 331 330 328 329 329 327 328 328 329 331 326 326 325 327 327 328 328 330 331 330 328 328 328 326 326 330 331 331 331
327 326 326 324 324 327 331 332 331 333 332 330 330 331 328 329 329 329 330 331 332 332 330 330 328 329 327 327 327 326 327 327 330 329 329 327 329 329 328 328 327 327 326 325 326 326 325 325 325 327 328 328 329 329 328 328 328 328 327 327 330 331
324 323 323 324 325 327 329 330 331 337 332 331 331 330 328 328 328 329 330 329 331 331 330 328 328 329 327 328 328 327 328 330 331 328 328 329 328 328 327 327 327 327 325 325 326 322 322 323 324 325 326 327 326 326 326 327 328 329 328 327 327 328
322 322 322 322 321 321 324 326 329 331 331 330 329 328 328 327 329 330 330 329 329 330 330 328 329 330 327 328 329 329 329 330 330 327 327 327 327 326 326 326 324 325 326 325 324 322 323 325 325 325 327 329 330 327 325 326 326 327 329 327 327 327
322 322 321 320 320 320 321 321 322 326 331 328 328 329 330 331 330 329 330 329 330 330 330 330 331 330 328 329 329 329 328 328 329 327 327 327 326 325 323 324 323 323 325 325 323 323 323 324 328 328 326 328 328 329 327 326 325 326 325 326 325 326
322 321 320 320 321 320 319 315 316 322 325 326 327 326 328 330 330 329 329 329 330 330 331 330 330 331 329 331 329 329 328 327 326 327 327 326 324 325 324 321 323 323 325 325 325 324 324 325 326 326 325 325 325 328 329 328 326 325 325 325 326 328
321 321 319 320 319 315 313 316 318 321 323 322 322 323 320 323 326 327 327 328 329 329 330 330 330 330 330 330 330 329 328 328 326 327 326 324 323 323 323 323 321 323 324 327 327 325 325 325 323 323 322 322 324 325 327 324 324 325 323 324 323 324
320 320 319 316 314 311 310 314 317 320 319 317 318 318 318 317 319 320 324 327 329 330 329 330 330 329 329 333 330 331 328 327 328 328 326 324 322 323 323 322 324 322 323 324 324 324 324 324 321 318 318 318 320 322 325 323 322 322 322 321 322 322
319 319 318 316 316 314 314 315 315 317 317 316 316 313 313 316 318 319 318 318 318 318 325 329 329 327 328 328 328 329 328 326 326 326 325 324 323 326 323 323 323 322 323 322 321 323 324 322 317 317 314 312 312 317 321 322 320 321 322 321 321 321
319 319 319 318 315 315 315 316 315 314 316 313 315 315 315 318 318 315 315 316 317 317 317 319 325 327 327 328 327 327 328 327 326 328 326 324 323 323 322 323 322 322 320 322 322 323 323 320 318 317 315 312 309 307 311 315 316 319 321 320 321 321
319 319 319 320 320 317 318 315 316 316 314 314 315 318 315 314 313 314 315 317 317 316 317 317 318 321 323 326 326 327 325 326 327 327 326 325 324 323 322 322 324 322 321 319 319 322 324 322 319 318 313 312 309 304 304 306 311 315 319 320 321 321
319 319 319 322 318 317 316 314 314 314 316 315 314 313 312 312 314 317 316 315 314 315 316 315 315 316 317 316 321 325 325 323 325 324 325 324 323 324 323 323 323 321 320 317 318 320 323 324 323 320 316 311 308 306 306 308 309 311 317 318 317 321
319 319 320 317 316 315 315 313 312 312 310 310 309 309 309 311 311 312 312 313 315 316 316 316 315 315 317 316 316 318 321 324 325 325 325 324 322 323 323 323 322 322 320 318 320 316 319 324 321 321 319 316 312 308 309 314 309 304 312 316 318 320
319 318 319 316 315 315 312 312 311 311 311 311 310 309 310 311 312 312 313 313 314 314 314 313 312 311 311 312 312 313 314 315 318 320 322 322 323 323 325 326 324 322 321 320 319 315 319 318 318 319 320 320 320 317 313 310 308 306 303 308 314 315
319 319 318 315 314 314 312 310 310 310 312 310 310 311 312 312 313 315 313 313 314 313 313 312 311 310 311 312 311 311 313 314 315 317 319 317 316 316 318 319 320 319 319 319 318 317 314 314 316 314 316 317 317 318 317 316 310 310 306 307 307 312
318 319 317 316 314 313 313 311 311 311 311 312 313 314 314 315 313 314 313 312 311 310 309 309 310 310 311 312 313 309 310 311 313 314 316 314 313 314 314 313 312 312 313 314 317 316 316 313 313 313 315 314 315 315 315 315 315 313 310 306 305 306
316 318 318 316 314 313 312 312 311 312 313 312 314 313 313 311 311 311 311 309 309 308 308 309 310 310 309 309 309 311 311 311 311 313 313 309 310 310 311 311 310 310 310 310 309 309 307 306 308 308 313 314 311 309 307 303 303 306 307 309 307 306
317 319 318 316 315 313 312 312 313 315 314 313 313 312 311 310 311 310 309 308 308 308 309 309 309 309 310 311 312 313 310 310 311 314 311 309 309 310 310 309 309 308 308 307 306 306 306 306 306 306 305 305 304 305 303 301 301 303 302 300 298 299
316 318 317 317 315 314 312 313 315 315 314 314 313 313 311 311 312 310 308 308 307 307 307 308 307 308 308 309 311 309 310 309 310 309 310 310 310 310 309 308 307 307 306 306 306 306 303 303 303 303 303 303 303 304 304 303 303 303 301 301 300 298
315 317 317 317 315 314 313 314 315 315 314 314 313 313 312 313 312 309 308 308 307 307 307 307 307 308 307 308 309 307 307 307 308 310 308 308 307 307 306 306 306 305 304 303 303 303 302 301 301 301 301 301 302 302 303 303 303 303 302 302 300 297
315 318 316 316 315 314 314 314 315 315 314 315 313 313 314 314 312 310 310 308 308 308 307 307 308 307 309 309 308 308 308 308 308 308 308 306 306 306 307 307 307 306 306 304 304 303 303 302 302 301 299 300 300 300 300 303 302 303 302 301 299 299
316 316 315 316 316 314 315 315 315 315 315 315 313 314 315 315 312 311 310 308 308 308 308 308 308 308 310 309 308 308 308 307 307 308 309 309 310 308 308 309 309 308 307 306 305 305 303 303 304 302 300 299 301 301 301 302 302 303 303 302 302 302
316 317 318 318 319 318 317 317 315 314 314 314 315 314 315 314 313 312 311 309 309 309 309 309 309 310 311 310 308 309 309 307 307 307 308 308 307 308 308 307 307 306 306 310 306 304 303 303 303 302 301 299 300 300 302 302 302 301 302 303 303 302
316 316 317 318 319 319 318 317 314 315 314 313 313 313 314 314 313 313 312 310 309 309 310 310 310 312 311 308 308 308 308 308 307 307 307 307 306 306 307 308 306 305 305 306 306 304 304 303 303 302 302 301 299 300 303 303 302 304 304 302 303 302
Wind_Speed
5 6 6 5 5 6 9 12 11 13 12 12 11 12 11 11 9 8 7 7 6 5 4 4 6 5 10 7 9 10 11 10 10 10 10 9 9 9 8 7 6 5 5 5 5 5 3 2 2 2 1 2 5 3 1 5 5 5 5 5 5 5
5 6 6 5 4 5 6 8 7 7 7 9 11 12 8 6 7 5 8 5 4 4 4 4 4 6 4 4 6 8 9 9 10 10 10 9 9 8 8 7 6 5 5 5 6 2 1 2 1 2 2 2 4 2 4 6 6 5 5 4 4 6
6 6 7 5 5 5 5 5 6 6 6 8 8 9 6 7 5 6 5 5 4 3 3 3 3 4 3 4 2 8 8 8 8 9 9 9 8 8 6 7 6 5 4 4 1 2 2 2 1 3 2 1 4 2 4 4 3 5 5 4 4 9
8 6 6 5 5 5 5 5 5 5 5 5 5 5 5 6 5 5 6 5 4 3 3 4 7 10 6 3 1 3 5 6 7 7 8 6 8 7 8 8 6 6 4 1 2 3 4 3 3 2 1 0 4 1 5 4 5 4 5 5 5 12
7 6 6 5 6 5 5 5 4 4 5 4 4 4 4 5 5 5 5 5 4 3 4 3 2 3 2 2 3 3 3 0 2 2 5 3 4 4 5 3 3 3 2 2 1 4 3 4 4 3 2 2 4 1 5 5 5 5 5 4 5 11
7 6 6 6 5 6 7 6 5 5 6 5 6 5 4 4 4 5 4 4 4 5 4 4 3 2 3 3 3 2 0 0 2 4 3 3 3 3 3 4 3 3 4 2 3 3 3 3 5 4 3 2 3 2 5 5 4 4 5 5 5 11
6 6 6 5 5 5 5 5 5 6 6 4 4 5 4 3 3 3 3 4 4 4 4 3 4 3 3 4 4 2 2 0 2 4 5 5 5 4 5 5 4 4 3 3 3 3 3 4 3 3 4 3 1 2 5 5 4 4 4 4 5 11
6 6 5 6 6 5 5 6 5 5 5 5 4 3 4 4 3 3 4 4 4 4 4 4 4 4 3 4 5 4 3 5 4 4 5 5 5 4 4 5 4 3 4 3 3 5 4 4 5 4 4 3 1 5 5 5 5 4 4 5 4 8
7 7 5 6 6 5 5 6 5 4 5 6 4 4 4 4 4 2 2 3 5 6 4 4 4 4 3 4 5 4 4 5 4 4 4 5 5 5 5 5 5 5 5 5 5 5 5 4 5 5 4 2 3 5 6 6 5 4 3 4 5 6
8 8 7 5 6 6 6 7 5 6 6 6 5 3 4 5 4 4 3 3 3 4 5 5 4 4 5 5 5 5 3 3 4 2 4 5 4 4 5 4 4 4 4 4 4 5 3 3 1 2 3 5 3 1 3 5 6 6 5 4 4 5
7 6 8 7 6 7 7 6 5 3 2 4 4 3 3 4 4 4 3 3 2 2 2 3 4 5 4 5 4 5 4 3 2 3 3 3 2 3 3 5 5 5 5 3 3 1 4 4 3 4 4 5 4 4 4 3 3 4 5 5 4 4
5 6 6 6 6 6 6 6 5 4 5 3 6 5 4 3 4 3 5 3 3 1 3 4 5 4 5 4 4 5 4 4 4 4 3 3 4 3 2 3 4 4 2 3 3 4 3 5 4 4 4 4 4 6 4 4 4 4 4 3 2 4
5 5 6 5 6 6 7 7 7 6 4 3 4 5 5 4 2 4 4 4 3 2 3 5 5 5 3 2 2 5 4 4 5 5 4 3 3 2 1 1 1 2 3 3 4 3 4 4 5 3 4 3 5 6 3 4 4 4 4 5 5 2
5 6 5 4 6 6 6 6 6 5 5 4 3 3 6 4 4 5 5 5 4 3 4 5 5 3 2 3 3 5 5 4 2 2 3 1 3 2 4 4 3 4 3 4 4 3 4 4 4 3 4 3 5 5 5 4 2 3 5 4 4 3
6 7 6 5 5 6 6 6 6 6 6 5 3 3 3 5 4 5 5 5 5 5 5 3 2 4 2 4 3 4 4 2 2 3 4 2 3 3 5 5 5 5 4 4 4 2 3 3 3 4 3 4 5 4 5 5 4 3 2 1 6 5
7 9 8 7 6 7 7 6 5 5 6 4 3 2 2 5 5 5 5 5 5 5 3 2 0 1 2 3 2 2 3 2 3 4 3 1 2 4 3 4 2 6 6 3 4 3 2 3 3 3 3 3 3 3 5 4 4 4 3 3 2 1
9 10 8 7 7 5 6 5 4 5 4 5 5 3 1 2 4 5 5 4 3 3 4 3 2 2 1 3 4 3 2 2 3 4 4 3 3 2 3 4 3 1 4 5 4 3 2 2 3 2 2 3 3 3 4 3 3 3 3 4 3 3
7 8 8 8 7 7 7 6 5 5 4 5 5 5 3 2 2 3 3 4 4 5 2 2 2 3 2 3 2 4 3 2 3 4 4 3 4 3 2 3 4 2 2 5 4 4 3 2 3 3 3 3 4 3 2 2 2 2 3 3 3 3
7 7 6 5 5 5 5 6 6 7 6 5 4 3 4 6 4 2 2 0 2 2 2 3 4 3 3 4 3 3 4 3 2 4 4 4 4 3 3 2 3 3 3 2 3 3 3 3 3 3 3 3 2 0 1 3 2 3 3 2 2 1
6 6 5 4 5 5 6 7 7 6 7 5 4 4 3 4 7 7 5 2 1 1 2 4 5 5 5 3 3 2 3 4 3 4 5 4 4 4 4 4 3 3 4 3 3 3 3 4 4 4 1 1 1 1 1 1 2 2 2 2 2 2
5 5 6 6 5 5 6 5 5 6 7 4 6 4 5 3 5 6 8 9 10 9 7 8 7 4 4 4 2 2 2 4 4 4 3 4 3 4 3 3 3 2 3 3 3 3 3 4 4 1 1 1 1 1 0 0 0 0 1 1 2 3
5 5 5 6 6 5 4 7 8 7 6 5 5 6 5 5 6 5 5 5 5 4 5 6 5 4 4 6 6 5 4 3 3 4 3 2 3 3 3 3 2 3 2 3 1 1 1 3 1 2 1 1 2 3 1 1 2 1 0 1 2 2
6 6 6 5 4 4 3 5 7 5 8 3 1 3 6 4 5 6 5 5 5 4 4 5 5 5 6 5 5 6 5 4 4 4 4 3 3 3 3 3 3 4 2 4 2 1 1 0 2 1 1 1 2 2 2 3 1 1 0 1 1 1
7 6 6 4 3 3 5 6 6 7 4 5 5 4 5 4 5 6 6 5 5 6 5 5 4 4 4 5 5 5 3 3 4 4 5 5 4 3 3 3 3 3 4 5 2 0 1 1 1 4 0 0 1 1 3 2 2 3 1 1 0 1
8 7 4 4 6 7 9 9 8 7 7 8 5 5 6 5 4 4 4 6 4 5 5 5 4 4 4 4 4 4 4 3 3 3 3 4 4 4 3 3 3 3 4 4 2 1 1 2 1 0 3 2 1 1 2 2 3 3 3 2 1 1
7 6 5 5 8 9 9 10 9 9 7 7 6 5 5 5 4 5 4 2 4 5 5 5 5 5 4 5 5 3 3 4 3 3 4 2 1 1 0 0 3 3 2 2 4 2 1 1 1 3 1 1 2 0 0 1 2 2 4 0 2 3
8 6 6 7 8 9 9 8 9 9 8 8 8 2 1 3 5 3 3 5 4 5 5 7 5 5 5 5 5 5 4 4 3 3 3 4 4 4 4 3 1 2 3 3 4 3 4 2 2 2 2 1 2 2 2 2 0 0 3 3 2 2
8 7 7 7 8 10 10 8 7 7 7 7 7 6 5 4 3 4 6 4 5 4 5 5 6 6 6 6 6 5 5 5 6 4 4 4 3 3 4 3 1 1 1 2 3 5 3 3 4 1 1 2 3 3 3 4 2 1 1 2 4 4
10 9 8 9 9 10 11 10 9 8 6 4 6 7 4 4 5 4 5 4 5 4 5 5 5 6 6 6 6 6 6 6 6 5 5 5 4 4 5 5 4 4 5 4 3 3 4 2 2 3 2 3 4 4 3 3 2 1 0 0 3 1
10 10 10 9 10 10 11 10 10 9 9 7 6 5 5 5 5 4 6 5 4 6 5 5 5 5 6 6 6 6 6 6 5 5 5 5 6 6 5 5 4 5 5 6 4 5 5 4 4 3 3 4 3 2 3 3 3 3 2 0 1 2
12 11 11 11 11 11 10 10 10 10 10 10 8 8 7 5 4 4 6 4 5 5 4 5 5 5 5 5 5 5 6 5 5 4 6 6 5 5 5 5 5 6 6 7 6 5 5 4 5 6 5 5 5 4 3 2 1 2 2 1 2 3
11 11 10 11 10 11 10 10 10 11 11 11 10 8 9 8 6 6 5 5 4 6 5 5 4 5 4 5 6 5 5 5 5 5 5 5 5 5 5 5 5 6 5 4 4 6 5 6 6 6 4 5 5 5 5 4 2 1 3 1 2 1
12 11 12 11 11 10 10 10 11 11 11 10 10 9 9 8 6 6 6 6 6 6 6 6 4 6 4 5 6 6 6 6 5 5 5 5 4 5 5 5 5 5 5 5 4 5 6 4 4 6 6 3 5 5 4 1 2 3 2 3 3 2
13 10 9 9 10 10 10 10 11 11 10 10 9 9 9 9 7 6 7 8 7 7 7 7 6 5 5 4 5 5 5 5 5 5 5 5 5 5 5 6 5 6 5 3 5 6 6 4 5 4 3 6 5 6 3 3 4 5 3 3 3 2
8 8 9 10 7 2 3 9 10 10 11 9 10 9 9 8 8 7 6 8 7 6 7 6 7 5 4 5 5 5 5 6 5 5 5 5 5 5 4 4 4 4 4 4 5 6 5 5 6 5 5 5 6 5 4 3 4 3 3 3 2 1
13 14 14 14 7 5 11 2 10 11 11 10 9 8 8 7 8 8 8 8 8 7 7 7 6 5 5 6 5 5 5 5 5 5 5 6 5 6 5 6 4 4 4 2 5 5 4 5 5 4 4 3 5 3 2 3 3 2 3 3 3 2
6 8 10 13 13 13 10 6 8 10 9 9 9 10 10 10 10 8 8 6 7 7 8 7 7 6 6 5 5 5 5 5 5 5 5 5 6 5 5 6 6 4 4 3 5 4 4 5 4 4 4 4 4 3 1 1 2 2 2 2 3 3
Wind_Direction
134 129 127 124 132 141 150 141 141 146 145 142 137 146 146 145 146 149 136 133 134 124 138 144 142 153 155 158 161 157 156 153 154 152 156 159 160 167 171 176 177 171 174 187 209 217 205 201 177 167 235 58 68 71 75 136 123 131 144 150 146 157
124 124 122 128 135 142 147 143 140 147 148 147 151 149 147 146 134 130 138 124 133 134 143 139 150 156 154 161 161 161 159 160 160 161 159 163 168 172 181 182 188 190 196 205 219 238 274 315 300 231 224 104 81 67 77 128 138 142 143 148 152 162
127 136 136 130 133 139 137 133 140 139 144 148 150 143 151 148 132 139 141 139 131 138 156 149 151 151 137 113 134 173 165 167 169 167 165 168 169 176 182 189 197 205 221 238 292 320 313 298 312 305 333 57 86 75 96 117 123 136 148 156 159 166
146 149 139 144 139 138 136 133 132 137 145 143 132 144 151 145 143 143 146 142 136 131 136 168 184 180 155 130 97 25 187 164 175 171 173 171 177 181 186 190 200 209 222 283 344 324 317 303 290 285 281 266 99 150 125 138 142 145 149 160 171 167
146 151 143 146 143 137 126 118 118 132 130 114 121 153 151 139 145 148 151 147 144 123 122 111 89 92 91 89 52 34 347 84 144 181 176 170 174 182 186 191 199 204 232 229 270 277 293 301 288 302 331 323 88 170 136 143 152 149 159 163 173 168
152 153 148 150 147 146 137 133 144 154 134 143 151 157 141 127 129 152 160 151 131 121 126 132 124 114 96 99 92 48 194 207 180 167 170 169 172 180 180 191 188 194 233 218 230 254 270 275 288 294 294 282 103 184 136 140 146 150 154 160 177 169
141 141 142 135 141 140 137 139 152 154 139 142 154 154 135 109 127 125 159 154 137 138 138 150 135 125 115 122 140 165 189 97 228 174 175 162 180 190 187 188 190 203 217 222 244 250 252 257 260 265 268 278 91 148 134 141 142 142 150 164 179 172
134 135 137 140 138 137 134 139 162 154 117 148 145 167 143 139 160 157 156 160 147 153 150 164 152 148 158 150 156 187 161 189 214 200 176 166 180 190 193 195 193 201 204 219 233 249 243 240 235 234 238 256 184 149 150 139 145 149 156 164 180 175
136 136 139 139 137 134 129 135 151 151 147 159 169 177 149 152 173 184 146 150 163 159 167 179 160 173 172 182 152 160 175 189 198 197 173 177 182 186 198 197 199 206 201 215 215 238 248 212 207 214 231 184 136 151 136 138 141 139 158 178 176 181
148 146 148 136 140 140 138 140 160 174 177 160 191 172 135 169 184 171 162 159 188 166 163 186 175 171 178 201 162 161 169 175 187 195 174 182 199 181 196 211 219 218 212 210 221 212 179 146 139 134 93 77 70 79 101 146 153 160 166 182 190 190
159 147 152 147 152 145 147 150 157 162 174 175 161 155 161 178 173 165 152 161 198 163 144 189 190 171 196 210 157 138 154 144 187 206 211 203 197 187 198 216 224 224 222 201 200 178 99 102 84 63 71 81 90 91 100 115 149 155 161 177 190 195
156 143 140 137 140 131 140 141 143 159 181 207 140 156 162 173 194 145 141 165 164 77 160 198 205 163 198 209 162 119 134 150 193 211 186 185 195 190 188 248 246 229 183 136 130 88 105 98 88 85 82 83 86 85 76 105 145 162 165 163 199 209
139 128 127 137 124 135 136 138 147 156 175 180 176 154 154 154 150 122 114 122 133 148 192 186 202 193 170 195 162 146 155 173 182 187 178 189 164 166 146 149 118 76 109 113 97 84 80 87 92 82 83 76 85 84 86 91 112 147 169 170 188 224
119 120 117 111 112 133 142 145 145 154 162 172 202 185 139 137 146 117 111 124 146 187 213 189 188 191 130 154 179 162 159 179 134 122 98 128 135 140 130 140 125 111 108 109 105 116 102 87 85 90 77 89 79 83 96 77 65 106 153 168 170 184
124 120 115 107 113 130 146 151 145 153 166 166 178 214 152 132 124 110 122 137 165 191 208 210 210 171 126 135 170 149 129 121 100 111 119 170 137 125 138 147 140 118 99 99 110 98 113 110 110 96 95 82 78 78 71 78 50 34 46 157 181 189
120 118 118 129 134 137 146 152 150 151 140 135 143 185 237 130 124 118 129 146 171 178 187 191 288 335 122 137 177 118 136 144 132 106 124 127 109 130 134 119 117 137 123 117 116 90 48 96 71 56 21 58 76 77 76 70 75 61 33 18 5 226
128 127 133 137 137 140 142 137 145 145 129 132 138 143 255 61 115 127 126 147 162 181 187 184 176 240 93 184 160 136 144 152 134 130 133 123 107 113 135 119 78 76 134 141 131 129 88 81 87 69 37 30 40 43 66 79 72 88 97 55 2 17
133 134 138 142 140 139 146 134 123 134 139 131 130 144 139 98 65 78 95 129 169 192 178 214 184 236 139 234 161 153 155 175 144 141 136 134 129 106 83 117 113 55 100 127 136 137 111 80 78 76 51 31 25 21 30 47 55 56 67 83 86 19
131 133 131 131 130 126 101 81 102 122 104 89 69 70 106 118 136 91 24 76 206 176 115 211 224 218 193 209 171 175 140 183 145 139 130 128 130 115 107 73 121 93 64 91 131 126 117 104 84 69 47 18 10 29 26 22 38 60 53 57 59 80
133 133 131 118 117 109 90 98 100 92 85 87 86 86 62 110 129 142 158 190 277 293 151 206 202 207 186 183 176 178 146 161 145 147 146 144 147 141 136 119 109 112 95 67 53 83 96 92 56 59 48 345 347 52 81 32 15 47 71 60 27 1
153 143 141 145 139 136 119 110 103 116 122 127 122 115 106 108 96 119 138 157 171 188 174 172 188 172 165 163 127 139 164 168 152 143 146 153 148 128 120 117 121 94 102 79 38 33 67 96 95 38 354 6 328 338 98 78 291 320 98 141 77 18
155 152 159 168 166 148 154 151 140 143 133 133 127 115 105 90 97 91 98 115 126 131 138 145 153 159 149 142 157 168 177 165 121 109 113 119 118 121 118 112 112 69 40 90 81 102 199 94 33 167 144 312 328 310 242 201 209 239 283 89 52 22
165 162 178 181 158 153 119 128 124 146 138 120 43 125 117 123 109 101 93 104 109 111 117 121 144 151 145 151 151 155 165 154 129 131 118 122 121 120 124 132 113 122 72 30 32 62 246 81 174 137 147 80 326 17 324 357 342 305 190 16 13 354
169 172 175 188 123 97 104 98 99 119 98 104 134 112 88 83 85 80 70 80 77 98 100 109 127 135 146 154 157 161 153 147 156 158 148 150 163 170 142 137 136 130 134 135 254 297 244 212 149 127 12 280 240 127 354 322 328 303 67 157 182 294
170 171 172 150 126 119 105 93 95 84 93 85 61 67 74 54 59 91 86 71 81 90 93 85 74 81 101 134 147 143 145 146 152 153 141 152 172 191 180 166 145 145 163 145 173 162 336 214 242 148 142 80 4 20 229 263 13 302 349 22 7 33
158 150 157 153 141 133 130 129 125 119 110 103 101 102 120 131 98 94 111 128 73 75 81 81 83 81 85 100 106 121 135 147 158 150 161 157 92 50 47 111 191 177 177 178 151 149 84 3 333 51 115 158 169 174 224 263 79 311 325 151 289 300
154 156 154 153 147 132 130 133 136 138 139 140 136 169 141 124 120 124 109 89 78 59 72 79 63 73 72 78 88 90 98 106 118 133 138 130 150 182 195 215 160 160 196 158 135 142 159 170 54 40 16 70 70 61 115 101 272 124 354 320 339 301
145 154 159 156 152 142 136 135 128 130 134 136 141 150 152 149 140 135 97 88 84 76 71 79 78 67 75 83 92 85 86 84 88 93 107 119 134 140 103 74 114 97 120 134 144 141 156 176 141 214 4 48 43 33 44 69 104 146 170 309 314 324
151 155 162 165 155 149 141 143 140 136 128 137 135 143 146 139 124 112 105 96 91 88 80 70 77 79 74 83 85 90 83 78 81 83 91 93 86 85 94 101 91 84 85 70 83 126 121 161 122 155 104 38 46 39 36 49 56 71 114 340 294 327
157 161 164 170 156 150 140 138 137 142 138 139 133 132 130 132 131 126 119 117 112 101 94 83 76 81 80 81 91 92 89 88 87 87 84 88 86 78 80 82 82 94 97 85 67 84 106 113 108 106 113 145 98 46 36 21 17 37 44 53 216 287
168 165 164 167 157 151 146 147 143 145 140 144 147 141 130 129 129 119 128 132 122 118 107 109 100 87 97 98 92 95 98 97 93 90 88 83 85 95 91 90 86 82 85 100 101 99 90 82 92 84 78 93 113 122 146 124 62 31 114 52 23 327
169 165 167 168 159 152 149 149 141 142 146 152 151 150 150 154 160 150 150 142 135 114 111 107 105 105 93 97 101 94 95 91 89 89 91 101 98 99 96 88 78 81 83 83 90 85 84 85 83 82 79 95 103 106 90 124 182 153 129 166 138 242
172 168 172 167 162 155 148 149 145 149 152 154 153 154 154 156 164 155 157 145 143 138 136 116 126 116 124 114 113 106 105 106 102 105 108 99 99 94 89 86 89 80 80 78 84 95 92 100 104 103 104 55 75 67 71 53 104 125 82 116 115 50
173 170 162 163 155 156 155 150 145 148 155 157 157 156 160 160 170 169 166 162 161 158 155 154 152 148 157 130 113 124 118 117 121 121 115 112 109 106 100 98 94 92 88 101 92 88 97 92 77 78 94 81 67 79 61 53 81 77 92 67 37 41
68 57 49 27 13 36 128 142 148 151 159 164 160 164 165 164 167 174 182 168 169 161 152 163 159 165 147 129 135 126 127 127 129 122 117 112 107 101 99 94 97 102 94 94 90 92 85 89 84 87 77 98 91 71 81 81 82 86 98 103 118 153
140 136 125 111 95 19 324 227 152 159 166 165 166 163 162 166 174 179 182 175 173 170 163 160 164 148 163 145 146 140 132 133 130 122 125 128 126 118 117 111 104 104 105 109 100 96 105 92 91 95 104 89 76 79 92 96 102 124 112 136 122 114
94 89 102 123 142 157 201 264 179 164 163 164 166 168 171 178 180 185 180 184 176 178 164 160 162 159 158 156 151 146 143 143 132 123 124 132 132 132 129 125 126 120 123 126 111 121 116 101 107 109 97 103 117 108 83 62 38 35 29 65 85 96